OBJECT D, 54254

Orbit data source: Space-Track

You're viewing an Uncataloged Satellite

Recently launched and/or uncataloged satellites may have evolving metadata. Metadata may include but not limited to: Owner, Maufacturer, Bus, Motor, and Mission.

OBJECT D, 54254 is a Chinese satellite in SSO that was launched on Wed, 16 Nov 2022 UTC via a GUSHENXING 1 launch vehicle from the Jiuquan Satellite Launch Center, China (JSC). Unknown objects in Earth's orbit typically refer to objects detected orbiting the Earth but have not yet been identified or cataloged. These objects could be anything from previously untracked satellites, spent rocket stages, debris from satellite collisions, or even natural meteoroids temporarily captured by Earth's gravity.

Not visible in the next 10 days
Identifier
54254, 2022-155D
Orbit
SSO
Country
Flag of CNCN / PRC
Related business
None
Manufacturer
Unknown
Mission
Operational Commercial Imaging
Bus & Motor
Unknown
Mass
Unknown
Launch date (UTC)
2022-11-16 (4 years ago)
Launch vehicle
GUSHENXING 1
Launch site
Jiuquan Satellite Launch Center, China (JSC)
Object type
Unknown
Shape & HBR
Box + 2 Pan, 0.8 m
Radar Cross Section
2.000 m², Medium (>0.1 m² and < 1m²)

Expand to show TLE details & history
Last TLE update: 22 hours ago

TLE from 22 hours ago
0 OBJECT D
1 54254U 22155D   26172.52744715  .00408745  75457-4  72349-3 0  9996
2 54254  97.6165 326.2356 0007234 261.5725  98.4734 16.01883601200996
Epoch: 2026-06-21T12:39Z
TLE epoch observation values (Epoch: 2026-06-21T12:39:31.433Z)
Latitude
-0.00001°
Longitude
-133.37181°
Altitude
273.109 km
Speed
7.743 km/s
True Right ascension
21h 44m 56s
True Declination
0° 00' 00"
Sunlit
Object was in full shadow at epoch
Visualization orbit readout
Latitude
Unknown
Longitude
Unknown
Altitude
Unknown
Speed
Unknown
Apparent Right ascension
Unknown
Apparent Declination
Unknown
Sunlit
N/A
Visualization observer readout
Local Sidereal Time
21:31:31
Azimuth
Unknown
Elevation
Unknown
Doppler factor
Unknown
Orbital elements
Apogee altitude
270.876 km
Perigee altitude
261.263 km
Semi-major axis
6,644.207 km
Eccentricity
0.00072
Inclination
97.6165°
RAAN
326.2356°
Arg. of periapsis
261.5725°
True anomaly
98.55538°
Mean anomaly
98.4734°
Eccentric anomaly
98.51439°
Mean motion
4.00755 °/min
Orbital period
89.83 mins
BSTAR
0.00072349
Loading maneuver chart data...
Computing Atmospheric mass density...
Loading historical data...
Loading historical data...
Loading historical data...
Loading historical data...
Loading historical data...
Loading historical data...
Loading historical data...
Other satellites on launch #155 in the year 2022 (2022-11-16 UTC)

Documentation

Showing up to 5 results
|